Content
SEND FEEDBACK

Daily
Averages
Monthly
Summary
Malaysia

KUALA LUMPUR, MALAYSIA


Home > Asia > Malaysia
Elevation: 72 feet     Latitude: 03 07N     Longitude: 101 33E

WEATHER
 
SELECT A DAY
Number of Records: 124,775;   Date Range: 7/19/98 - 12/16/14
 
SHARE

PRINT THIS DATA

[ ← Previous Day ]
WEATHER ALMANAC - NOVEMBER 5, 2013
[ Next Day → ]
[ °C ]   °F
Weather ElementAverageHighLow
Temperature79.9 °F87.8 °F (2:00 pm)75.2 °F (2:00 am)
Dewpoint75.8 °F77 °F (1:00 am)73.4 °F (5:00 am)
Humidity88.1 %100 % (2:00 am)66 % (2:00 pm)
Barometer29.82 in29.89 in (9:00 am)29.74 in (3:00 pm)
Wind Speed3.9 mph13.8 mph (2:00 am)
Weather ElementAverage
Visibility5.6 mi
Wind DirectionSW (225.7 °)

Weather ElementTotal
Precipitation---
Cooling Degree Days16.5 (Base 65)
Growing Degree Days31.5 (Base 50)
Averaged from 23 records on November 5, 2013
WEATHER CONDITIONS BREAKOUT
WIND DIRECTION BREAKOUT
WEATHER BY HOUR - NOVEMBER 5, 2013
[ °C ]   °F
Local TimeTemperatureDewpointHumidityBarometerVisibilityWind DirectionWind SpeedGust SpeedPrecipitationEventsConditions
1:00 AM78.8 °F77.0 °F94 %29.86 in3.1 miNorth (350°)2.3 mphRain-ThunderstormLight Thunderstorms and Rain
2:00 AM75.2 °F75.2 °F100 %29.86 in2.5 miWNW (300°)13.8 mphRain-ThunderstormThunderstorms and Rain
3:00 AM75.2 °F75.2 °F100 %29.83 in5.6 miNorth (360°)2.3 mphMostly Cloudy
4:00 AM75.2 °F75.2 °F100 %29.80 in6.2 miNNW (330°)1.2 mphMostly Cloudy
5:00 AM75.2 °F73.4 °F94 %29.83 in6.2 miNW (310°)1.2 mphMostly Cloudy
6:00 AM75.2 °F73.4 °F94 %29.80 in6.2 miNE (40°)1.2 mphMostly Cloudy
7:00 AM75.2 °F75.2 °F100 %29.83 in6.2 miNW (320°)1.2 mphMostly Cloudy
8:00 AM77.0 °F75.2 °F94 %29.86 in6.2 miCalmMostly Cloudy
9:00 AM77.0 °F75.2 °F94 %29.89 in5.6 miCalmMostly Cloudy
10:00 AM78.8 °F75.2 °F89 %29.89 in6.2 miWest (270°)3.5 mphMostly Cloudy
11:00 AM82.4 °F75.2 °F79 %29.89 in6.2 miWest (270°)3.5 mphMostly Cloudy
12:00 PM86.0 °F77.0 °F74 %29.86 in6.2 miWest (270°)8.1 mphMostly Cloudy
1:00 PM86.0 °F75.2 °F70 %29.83 in6.2 miWNW (290°)9.2 mphMostly Cloudy
2:00 PM87.8 °F75.2 °F66 %29.80 in6.2 miWest (280°)5.8 mphMostly Cloudy
3:00 PM87.8 °F77.0 °F70 %29.74 in6.2 miWNW (290°)10.4 mphMostly Cloudy
4:00 PM87.8 °F77.0 °F70 %29.74 in6.2 miWNW (290°)6.9 mphMostly Cloudy
5:00 PM84.2 °F75.2 °F74 %29.74 in6.2 miWest (260°)8.1 mphThunderstormThunderstorm
6:00 PM78.8 °F77.0 °F94 %29.74 in3.1 miNNW (340°)3.5 mphRain-ThunderstormThunderstorms and Rain
7:00 PM78.8 °F77.0 °F94 %29.77 in5.0 miWNW (300°)3.5 mphRainLight Rain
8:00 PM78.8 °F77.0 °F94 %29.80 in5.0 miCalmMostly Cloudy
9:00 PM78.8 °F77.0 °F94 %29.83 in5.0 miEast (80°)2.3 mphMostly Cloudy
10:00 PM78.8 °F77.0 °F94 %29.83 in6.2 miWSW (240°)1.2 mphMostly Cloudy
11:00 PM78.8 °F77.0 °F94 %29.86 in6.2 miCalmMostly Cloudy
Hourly data recorded from WMSA, located miles away from Kuala Lumpur, Malaysia







STORIES FROM OUR PARTNERS